Probability
0 6 97 48 16 10 0 0 0 0 0 0 0 0 0 0 0 0 0 0 0 0 0 0 0 0 0 0 0 0 0 0 0 0 0 0 0 0 0 0 0 0 0
0 13 97 61 16 10 0 0 0 0 0 0 0 0 0 0 0 0 0 0 0 0 0 0 0 0 0 0 0 0 0 0 0 0 0 0 0 0 0 0 0 0 0
0 35 81 65 35 10 0 0 0 0 0 0 0 0 0 0 0 0 0 0 0 0 0 0 0 0 0 0 0 0 0 0 0 0 0 0 0 0 0 0 0 0 0
6 29 35 74 45 16 0 0 0 0 0 0 0 0 0 0 0 0 0 0 0 0 0 0 0 0 0 0 0 0 0 0 0 0 0 0 0 0 0 0 0 0 0
3 6 23 81 55 16 0 0 0 0 0 0 0 0 0 0 0 0 0 0 0 0 0 0 0 0 0 0 0 0 0 0 0 0 0 0 0 0 0 0 0 0 0
0 0 26 90 65 39 0 0 0 0 0 0 0 0 0 0 0 0 0 0 0 0 0 0 0 0 0 0 0 0 0 0 0 0 0 0 0 0 0 0 0 0 0
0 0 29 90 77 35 3 0 0 0 0 0 0 0 0 0 0 0 0 0 0 0 0 0 0 0 0 0 0 0 0 0 0 0 0 0 0 0 0 0 0 0 0
0 0 13 94 87 61 10 0 0 0 0 0 0 0 0 0 0 0 0 0 0 0 0 0 0 0 0 0 0 0 0 0 0 0 0 0 0 0 0 0 0 0 0
0 0 3 45 52 68 32 10 0 0 0 0 0 0 0 0 0 0 0 0 0 0 0 0 0 0 0 0 0 0 0 0 0 0 0 0 0 0 0 0 0 0 0
0 0 0 0 0 0 0 3 3 0 0 0 0 0 0 0 0 0 0 0 0 0 0 0 0 0 0 0 0 0 0 0 0 0 0 0 0 0 0 0 0 0 0
0 0 0 0 0 0 0 0 0 0 0 0 0 0 0 0 0 0 0 0 0 0 0 0 0 0 0 0 0 0 0 0 0 0 0 0 0 0 0 0 0 0 0
0 0 0 0 0 0 0 0 0 0 0 0 0 0 0 0 0 0 0 0 0 0 0 0 0 0 0 0 0 0 0 0 0 0 0 0 0 0 0 0 0 0 0
0 0 0 0 0 0 0 0 0 0 0 0 0 0 0 0 0 0 0 0 0 0 0 0 0 0 0 0 0 0 0 0 0 0 0 0 0 0 0 0 0 0 0
0 0 0 0 0 0 0 0 0 0 0 0 0 0 0 0 0 0 0 0 0 0 0 0 0 0 0 0 0 0 0 0 0 0 0 0 0 0 0 0 0 0 0
0 0 0 0 0 0 0 0 0 0 0 0 0 0 0 0 0 0 0 0 0 0 0 0 0 0 0 0 0 0 0 0 0 0 0 0 0 0 0 0 0 0 0
0 0 0 0 0 0 0 0 0 0 0 0 0 0 0 0 0 0 0 0 0 0 0 0 0 0 0 0 0 0 0 0 0 0 0 0 0 0 0 0 0 0 0
0 0 0 0 0 0 0 0 0 0 0 0 0 0 0 0 0 0 0 0 0 0 0 0 0 0 0 0 0 0 0 0 0 0 0 0 0 0 0 0 0 0 0
0 0 0 0 0 0 0 0 0 0 0 0 0 0 0 0 0 0 0 0 0 0 0 0 0 0 0 0 0 0 0 0 0 0 0 0 0 0 0 0 0 0 0
0 0 0 0 0 0 0 0 0 0 0 0 0 0 0 0 0 0 0 0 0 0 0 0 0 0 0 0 0 0 0 0 0 0 0 0 0 0 0 0 0 0 0
0 0 0 0 0 0 0 0 0 0 0 0 0 0 0 0 0 0 0 0 0 0 0 0 0 0 0 0 0 0 0 0 0 0 0 0 0 0 0 0 0 0 0
0 0 0 0 0 0 0 0 0 0 0 0 0 0 0 0 0 0 0 0 0 0 0 0 0 0 0 0 0 0 0 0 0 0 0 0 0 0 0 0 0 0 0
0 0 0 0 0 0 0 0 0 0 0 0 0 0 0 0 0 0 0 0 0 0 0 0 0 0 0 0 0 0 0 0 0 0 0 0 0 0 0 0 0 0 0
0 0 0 0 0 0 0 0 0 0 0 0 0 0 0 0 0 0 0 0 0 0 0 0 0 0 0 0 0 0 0 0 0 0 0 0 0 0 0 0 0 0 0
0 0 0 0 0 0 0 0 0 0 0 0 0 0 0 0 0 0 0 0 0 0 0 0 0 0 0 0 0 0 0 0 0 0 0 0 0 0 0 0 0 0 0
0 0 0 0 0 0 0 0 0 0 0 0 0 0 0 0 0 0 0 0 0 0 0 0 0 0 0 0 0 0 0 0 0 0 0 0 0 0 0 0 0 0 0
0 0 0 0 0 0 0 0 0 0 0 0 0 0 0 0 0 0 0 0 0 0 0 0 0 0 0 0 0 0 0 0 0 0 0 0 0 0 0 0 0 0 0
Height
5857 5857 5857 5857 5857 5857 5856 5855 5854 5853 5853 5852 5852 5851 5852 5852 5852 5852 5853 5853 5852 5852 5852 5852 5852 5852 5852 5851 5851 5851 5851 5850 5849 5848 5847 5846 5845 5843 5842 5840 5839 5837 5836
5854 5854 5854 5854 5854 5854 5853 5853 5852 5851 5850 5849 5849 5849 5849 5849 5849 5850 5850 5849 5849 5849 5848 5848 5848 5848 5847 5847 5847 5847 5847 5846 5846 5845 5844 5843 5841 5840 5839 5838 5836 5835 5834
5851 5851 5851 5851 5851 5851 5850 5850 5850 5849 5848 5847 5846 5846 5846 5846 5846 5846 5846 5845 5845 5845 5845 5844 5844 5843 5843 5843 5842 5842 5842 5842 5842 5841 5840 5839 5838 5837 5836 5835 5834 5832 5831
5847 5848 5848 5848 5848 5848 5848 5848 5847 5847 5846 5845 5844 5844 5843 5843 5843 5842 5842 5842 5841 5841 5841 5841 5840 5840 5839 5839 5838 5838 5837 5837 5837 5836 5835 5834 5834 5833 5832 5831 5830 5829 5828
5844 5844 5844 5844 5844 5844 5845 5845 5845 5845 5844 5843 5842 5842 5841 5841 5840 5840 5839 5839 5839 5838 5838 5837 5837 5836 5836 5835 5834 5834 5833 5832 5832 5831 5830 5830 5829 5829 5828 5827 5826 5825 5824
5840 5840 5840 5840 5841 5841 5842 5842 5842 5842 5842 5841 5840 5840 5839 5838 5838 5837 5837 5836 5835 5835 5834 5834 5833 5833 5832 5831 5830 5829 5828 5827 5827 5826 5825 5825 5825 5824 5823 5822 5821 5820 5819
5836 5836 5837 5837 5837 5838 5839 5840 5840 5839 5839 5839 5838 5837 5837 5836 5835 5834 5834 5833 5832 5831 5830 5830 5829 5829 5828 5827 5826 5825 5823 5823 5822 5821 5820 5820 5819 5819 5818 5816 5815 5814 5812
5832 5832 5832 5833 5833 5834 5835 5837 5837 5836 5836 5836 5835 5835 5834 5833 5833 5832 5831 5830 5829 5828 5827 5826 5826 5825 5824 5822 5821 5820 5819 5817 5816 5815 5815 5814 5813 5812 5811 5809 5808 5806 5805
5828 5828 5828 5829 5830 5831 5832 5833 5834 5833 5833 5833 5832 5832 5831 5830 5830 5829 5828 5827 5825 5824 5823 5822 5821 5820 5819 5817 5816 5814 5813 5811 5810 5809 5808 5807 5805 5804 5803 5801 5800 5798 5796
5824 5825 5825 5825 5826 5827 5829 5830 5830 5830 5830 5830 5829 5829 5828 5827 5826 5825 5824 5822 5821 5819 5818 5817 5815 5814 5813 5811 5809 5808 5806 5805 5803 5802 5800 5799 5797 5796 5794 5792 5790 5789 5787
5820 5820 5820 5821 5822 5823 5825 5826 5826 5827 5827 5826 5826 5825 5825 5823 5822 5821 5819 5818 5816 5815 5813 5812 5810 5808 5807 5805 5803 5801 5799 5797 5795 5794 5792 5790 5789 5787 5785 5783 5781 5779 5777
5816 5816 5816 5817 5818 5819 5821 5822 5822 5823 5823 5823 5822 5822 5821 5820 5818 5817 5815 5813 5812 5810 5808 5807 5805 5803 5801 5799 5796 5794 5792 5790 5787 5785 5783 5781 5779 5777 5775 5773 5771 5770 5768
5812 5812 5812 5813 5813 5815 5816 5817 5818 5819 5819 5818 5818 5818 5817 5815 5813 5812 5810 5809 5807 5805 5803 5801 5799 5797 5795 5792 5789 5787 5784 5781 5779 5777 5774 5772 5770 5768 5766 5764 5762 5761 5759
5806 5808 5808 5808 5809 5810 5811 5813 5814 5815 5815 5814 5813 5813 5812 5810 5809 5807 5806 5804 5802 5800 5798 5796 5793 5791 5788 5785 5782 5779 5776 5773 5771 5768 5766 5764 5762 5760 5758 5756 5754 5752 5751
5801 5802 5803 5804 5805 5806 5807 5808 5810 5810 5810 5809 5808 5808 5807 5805 5804 5802 5800 5798 5796 5794 5792 5790 5787 5784 5781 5778 5775 5772 5768 5765 5763 5760 5758 5756 5754 5752 5750 5748 5746 5743 5742
5796 5797 5797 5799 5800 5802 5803 5804 5805 5805 5805 5804 5804 5803 5801 5800 5798 5796 5794 5792 5790 5788 5786 5783 5780 5777 5774 5771 5767 5764 5761 5758 5755 5753 5750 5748 5745 5743 5741 5739 5737 5735 5732
5790 5792 5792 5793 5795 5797 5798 5800 5800 5801 5800 5800 5799 5798 5796 5794 5792 5789 5787 5785 5783 5781 5779 5776 5773 5770 5767 5763 5760 5757 5753 5750 5747 5745 5742 5739 5737 5734 5731 5729 5727 5724 5722
5785 5786 5787 5788 5789 5791 5793 5794 5795 5795 5795 5795 5794 5792 5790 5788 5785 5783 5781 5779 5776 5774 5771 5768 5765 5762 5758 5755 5752 5748 5745 5742 5739 5736 5733 5730 5727 5724 5721 5718 5715 5712 5710
5779 5780 5782 5783 5784 5785 5787 5788 5789 5789 5789 5788 5787 5786 5783 5781 5778 5776 5774 5772 5769 5767 5764 5760 5757 5754 5750 5747 5743 5740 5736 5733 5730 5726 5723 5719 5716 5713 5709 5706 5703 5699 5696
5772 5774 5776 5777 5779 5780 5781 5782 5783 5783 5783 5782 5780 5779 5776 5774 5771 5769 5767 5765 5762 5759 5755 5752 5748 5745 5741 5738 5734 5731 5727 5723 5720 5716 5712 5708 5704 5700 5696 5692 5688 5684 5680
5766 5768 5769 5771 5773 5774 5776 5776 5777 5777 5776 5775 5773 5771 5769 5767 5765 5762 5760 5757 5754 5750 5747 5743 5738 5734 5731 5728 5725 5721 5717 5713 5709 5705 5700 5696 5691 5686 5681 5676 5671 5666 5661
5760 5762 5763 5765 5766 5768 5769 5770 5770 5770 5769 5768 5766 5764 5762 5760 5757 5755 5752 5748 5745 5741 5737 5733 5729 5724 5720 5716 5713 5711 5708 5706 5699 5694 5688 5682 5677 5671 5666 5660 5654 5648 5642
5754 5756 5757 5758 5760 5761 5763 5763 5764 5763 5762 5761 5759 5757 5755 5753 5750 5746 5743 5739 5735 5730 5726 5722 5718 5714 5709 5704 5700 5697 5693 5691 5690 5687 5680 5671 5664 5657 5650 5643 5636 5629 5622
5748 5750 5751 5752 5754 5755 5756 5756 5757 5756 5755 5754 5752 5750 5747 5745 5741 5737 5733 5729 5724 5720 5716 5711 5707 5703 5699 5694 5688 5682 5676 5670 5666 5666 5666 5658 5650 5642 5634 5626 5618 5609 5602
5742 5744 5745 5746 5747 5748 5749 5750 5750 5749 5748 5746 5744 5742 5739 5736 5732 5728 5723 5719 5714 5710 5705 5701 5696 5692 5687 5682 5676 5670 5663 5655 5647 5640 5638 5636 5630 5622 5614 5605 5597 5587 5578
5735 5737 5739 5740 5741 5742 5742 5742 5742 5742 5741 5739 5737 5734 5731 5727 5722 5718 5713 5709 5705 5700 5696 5691 5686 5680 5675 5668 5662 5655 5648 5641 5633 5624 5618 5612 5606 5600 5592 5584 5574 5563 5553
Wind_Speed
17 16 17 17 17 17 17 16 15 14 13 13 13 14 14 14 14 15 16 15 15 16 17 18 19 19 18 18 18 19 20 20 19 19 18 16 16 15 13 13 13 13 13
18 18 18 17 17 17 17 16 15 14 13 12 12 12 13 15 15 16 17 17 16 17 17 18 19 19 19 19 20 21 22 23 22 21 20 19 18 17 16 15 14 13 12
19 18 18 18 18 17 16 16 15 14 13 12 11 11 11 13 15 17 18 18 18 18 18 18 17 18 19 20 21 22 24 24 23 22 22 21 21 20 19 18 17 16 14
19 19 19 19 18 17 16 15 14 14 13 12 12 11 11 12 14 17 19 20 19 19 19 19 18 19 19 20 22 23 25 26 25 25 24 24 24 23 22 21 20 20 19
20 19 19 20 19 17 16 14 13 13 13 13 13 12 12 13 14 16 18 20 20 21 21 21 21 21 22 22 22 24 26 27 28 28 27 27 26 25 25 24 24 24 24
21 20 20 21 20 18 16 14 13 13 13 13 13 13 14 14 15 15 16 18 20 21 22 23 24 25 25 25 25 26 27 28 29 29 28 28 27 28 28 29 28 28 28
21 21 21 21 21 19 17 14 13 13 13 14 15 15 15 16 16 17 18 18 19 20 22 24 25 26 27 28 28 29 29 29 29 29 28 29 29 30 31 32 33 33 33
22 21 22 22 21 20 18 15 13 14 14 14 15 16 17 18 19 19 20 21 21 22 22 23 24 25 26 27 29 29 30 30 30 30 31 31 32 33 34 35 36 37 38
21 21 22 22 22 20 18 16 15 14 14 14 15 16 17 18 20 20 22 23 24 25 26 27 27 28 28 29 29 30 31 32 32 33 34 35 36 37 38 39 40 41 42
21 21 22 23 22 21 19 18 16 15 14 14 15 16 17 18 19 19 20 21 22 24 25 26 28 29 30 31 31 32 33 34 35 36 37 38 39 40 41 42 43 43 44
21 22 23 24 24 22 21 20 18 16 15 15 15 16 16 17 18 18 19 20 21 22 23 24 26 27 29 30 31 33 34 35 37 38 39 41 42 43 43 44 43 42 41
22 22 23 25 24 23 23 22 20 18 17 16 17 17 18 18 19 19 20 21 22 22 23 24 25 27 28 30 32 33 35 36 38 39 40 41 42 42 41 40 38 36 35
24 23 23 24 25 25 25 24 22 21 20 20 21 21 22 22 23 23 23 24 25 25 26 27 29 30 31 33 34 35 36 37 38 38 39 39 38 37 36 35 34 33 33
26 24 23 24 26 26 26 25 24 23 23 23 24 25 26 27 27 28 27 27 27 28 29 30 32 33 34 35 36 37 37 37 37 37 36 36 36 35 36 36 36 36 36
27 26 24 25 26 27 27 27 25 25 25 25 25 26 28 29 30 31 31 31 31 31 31 32 34 35 36 37 37 37 37 37 37 36 36 36 36 37 38 39 40 41 41
27 26 26 26 26 26 27 27 26 26 26 26 25 26 28 30 31 33 33 33 33 33 33 34 35 36 37 38 38 37 37 37 38 38 38 38 39 40 41 42 42 43 44
27 26 27 27 27 26 26 25 25 26 26 25 25 27 29 30 31 32 32 32 32 33 34 36 37 38 38 39 38 38 38 38 39 39 40 41 42 43 44 45 46 47 48
27 26 27 27 27 25 24 24 24 25 25 24 25 27 29 30 31 30 30 30 31 33 34 36 38 39 39 39 39 39 39 39 40 41 42 43 44 46 47 48 50 51 53
27 26 27 27 26 24 24 24 24 24 25 25 27 29 30 30 30 30 30 31 33 35 36 38 39 40 40 39 39 39 40 41 42 43 44 46 48 49 51 53 55 57 59
28 27 26 26 25 25 25 25 25 25 26 27 29 31 31 31 30 31 31 33 35 37 39 41 42 41 41 40 40 40 41 42 43 45 47 49 51 53 56 58 61 63 65
28 28 27 26 26 26 26 26 26 27 28 29 31 32 31 31 32 33 34 37 39 40 42 43 43 43 43 42 42 41 43 44 46 48 51 54 57 60 62 64 67 69 70
29 28 27 27 27 27 27 27 28 29 30 31 32 31 31 32 34 36 38 40 42 43 44 44 44 44 44 44 44 44 45 47 50 53 57 60 63 65 67 69 71 73 74
29 29 28 27 28 28 28 29 29 30 30 31 31 31 33 35 37 39 41 43 44 45 45 45 44 44 45 47 49 51 53 54 55 56 60 63 66 68 70 72 73 75 76
29 29 28 28 28 29 29 30 30 31 32 32 32 33 36 38 40 42 43 44 44 44 45 45 46 47 48 51 54 57 61 64 66 65 64 65 67 69 71 73 74 76 78
29 29 28 28 28 29 30 30 31 31 32 32 34 36 38 41 42 43 44 44 44 44 45 46 48 51 53 56 59 62 65 68 72 74 73 73 72 71 72 73 75 78 80
28 28 28 28 28 29 30 31 31 32 33 35 36 38 40 42 43 43 44 44 44 45 47 49 52 55 58 61 64 67 69 71 73 75 77 77 77 76 76 76 79 82 86
Wind_Direction
270 275 278 284 291 297 302 304 304 302 298 294 288 283 276 271 266 265 263 261 259 258 258 257 256 255 256 257 259 263 266 269 269 270 269 269 269 272 277 285 291 293 291
265 271 276 282 289 294 299 301 302 301 298 296 293 287 278 268 263 261 260 259 259 259 258 257 255 255 256 257 259 261 264 266 267 268 268 269 269 270 273 278 284 289 290
263 269 275 281 284 289 293 296 298 297 296 294 293 289 281 270 262 257 255 255 256 258 258 256 256 256 257 259 262 263 265 265 266 267 266 267 267 269 271 275 279 282 284
259 265 272 275 278 281 285 290 293 294 292 289 286 283 277 270 264 259 255 253 254 257 258 258 259 259 261 263 265 266 266 265 265 265 264 264 265 267 270 274 276 278 279
258 263 267 269 270 272 276 280 286 287 285 283 281 278 275 270 266 264 261 259 258 259 260 261 262 263 265 267 270 271 269 266 264 264 263 264 265 267 270 272 274 277 279
260 263 264 263 264 265 267 271 278 281 280 278 277 276 273 271 269 270 269 265 262 261 262 263 264 265 267 269 271 272 270 267 266 265 266 266 266 267 270 272 274 277 279
261 263 263 260 259 259 261 263 270 275 277 278 277 275 274 271 271 272 274 271 268 267 269 269 270 270 271 271 272 272 271 270 269 268 268 269 268 269 270 273 275 276 277
263 264 262 257 253 253 255 256 262 270 276 279 279 278 277 276 275 274 274 275 275 274 274 275 275 276 276 276 275 274 273 272 271 270 269 269 269 270 271 273 274 275 275
264 264 261 253 248 249 250 251 255 265 274 279 282 283 284 282 281 279 278 277 276 276 276 275 275 275 275 276 276 276 275 274 274 273 273 273 273 274 275 275 276 276 276
264 263 258 249 246 246 246 248 251 260 268 275 282 287 288 287 286 284 283 281 280 278 278 277 276 276 275 275 275 276 276 276 277 277 277 277 277 277 278 278 278 278 277
263 264 256 247 244 243 242 244 249 255 263 271 280 286 290 292 291 290 288 286 285 284 283 283 282 280 280 279 278 278 278 278 278 279 279 279 279 280 280 280 280 278 277
265 266 259 248 244 241 240 242 246 252 260 269 277 284 289 292 292 293 291 289 288 287 287 288 288 287 286 284 283 282 281 281 281 281 281 281 282 282 282 281 281 280 279
263 263 259 251 247 244 243 242 246 253 262 269 275 281 286 290 293 295 295 293 292 291 291 291 290 290 289 288 287 286 284 283 283 283 283 282 282 282 282 282 281 279 277
261 260 255 250 247 247 247 247 250 256 263 269 274 280 286 290 293 295 294 293 291 291 292 293 293 293 293 292 291 289 287 285 284 284 283 282 281 281 280 279 278 277 275
259 261 255 249 246 246 247 249 252 259 266 272 278 283 288 291 292 292 292 292 291 292 294 295 296 297 297 296 294 291 288 285 283 281 280 279 278 277 276 276 276 276 275
256 259 256 252 249 247 246 247 251 257 266 273 280 286 289 291 292 291 290 290 291 291 293 295 297 299 298 296 293 290 287 285 283 282 280 279 278 277 277 276 275 274 274
254 256 254 253 253 250 248 248 251 257 263 271 278 284 289 292 293 292 291 290 290 291 292 295 297 298 297 295 292 289 286 285 284 283 282 282 281 280 279 278 277 276 275
251 252 252 251 252 251 250 251 254 259 265 272 279 284 290 293 294 293 292 292 291 292 294 295 297 297 296 295 292 289 287 286 285 284 284 283 283 282 281 281 280 280 279
250 251 251 250 250 250 252 255 257 262 269 276 283 288 292 294 294 293 293 292 293 294 295 296 297 296 295 293 291 289 287 286 285 285 284 284 284 284 283 283 283 283 282
248 252 253 249 247 248 252 256 260 266 274 280 285 290 293 293 293 293 293 293 294 295 296 296 296 295 293 291 289 287 286 285 285 285 286 286 287 287 287 286 286 285 285
248 253 253 249 245 248 252 257 263 270 277 282 288 291 292 292 293 293 294 295 295 296 296 296 295 294 293 291 289 288 288 289 289 290 291 291 291 291 291 290 290 289 288
247 251 253 251 249 251 255 260 266 273 279 284 289 289 290 292 293 294 294 295 296 296 296 295 294 294 293 291 290 289 289 291 292 293 294 294 293 293 293 292 291 290 289
245 249 252 253 253 255 259 263 268 274 280 285 288 289 291 292 293 294 295 296 296 297 296 295 295 294 294 294 294 294 293 291 290 291 292 293 293 293 293 292 291 289 288
243 247 252 253 255 257 260 264 269 275 281 285 287 290 291 292 293 294 295 296 297 297 296 296 296 296 296 297 297 297 297 297 296 294 293 293 293 293 292 292 291 290 289
241 246 250 254 256 258 261 265 270 275 280 284 287 289 292 293 294 295 296 296 297 297 297 297 297 298 298 298 298 298 298 299 299 298 297 296 295 295 295 294 294 293 292
241 245 250 254 256 258 261 265 270 275 280 283 287 290 292 294 294 295 296 296 296 296 297 297 298 298 298 299 299 299 299 299 298 298 297 297 296 297 297 297 297 296 295